Location: Unspecified
(0.0000°N, 0.0000°E)
Time: 09:49:32

Cosmos 1340 - Visible Passes

Search period start: 04 October 2015 00:00
Search period end: 14 October 2015 00:00
Orbit: 511 x 518 km, 81.2° (Epoch: 03 October)

Date Brightness Start Highest point End Pass type
(mag) Time Alt. Az. Time Alt. Az. Time Alt. Az.
11 Oct 4.3 20:55:08 10° NNE 21:02:20 10° SSE 21:02:19 10° SSE visible
12 Oct 3.4 20:39:50 10° NNE 20:43:12 30° E 20:46:38 10° SSE visible
13 Oct 3.7 20:24:37 10° NNE 20:27:41 24° E 20:30:51 10° SE visible
